Regional Weather Roundup
Issued by NWS

Home | Current Version | Previous Version | Graphics & Text | Print | Product List | Glossary On
Versions: 1 2 3 4 5 6 7 8 9 10 11 12 13 14 15 16 17 18 19 20 21 22 23 24 25 26 27 28 29 30 31 32 33 34 35 36 37 38 39 40 41 42 43 44 45 46 47 48 49 50
000
ASUS43 KMKX 211521
RWRWI

WISCONSIN REGIONAL WEATHER ROUNDUP
NATIONAL WEATHER SERVICE MILWAUKEE/SULLIVAN WI
900 AM CST SUN DEC 21 2014

NOTE: "FAIR" INDICATES FEW OR NO CLOUDS BELOW 12,000 FEET WITH NO
SIGNIFICANT WEATHER AND/OR OBSTRUCTIONS TO VISIBILITY.

WIZ001-002-006>008-014>016-023>028-211600-
NORTHWEST WISCONSIN

CITY           SKY/WX    TMP DP  RH WIND       PRES   REMARKS
SUPERIOR ARPT  CLOUDY    32  29  90 S8        29.92F WCI  25
ASHLAND        CLOUDY    32  27  81 S3        29.95F
HAYWARD        CLOUDY    31  27  85 S10       29.93S FOG     WCI  22
SIREN          CLOUDY    32  31  96 S8        29.90F FOG     WCI  25
CUMBERLAND     FOG       30  30 100 SE12G17   29.91F VSB 3/4 WCI  21
RICE LAKE      CLOUDY    31  30  96 SE12      29.94F FOG     WCI  22
CHETEK         CLOUDY    30  29  96 SE9       29.95S FOG     WCI  22
LADYSMITH      CLOUDY    32  29  90 SE8       29.97S FOG     WCI  25
EAU CLAIRE     CLOUDY    32  29  88 SE12      29.96F FOG     WCI  23
MENOMONIE      FOG       32  32  99 E9        29.96S VSB 1   WCI  24
NEW RICHMOND   CLOUDY    32  32 100 S14G20    29.90F FOG     WCI  22
OSCEOLA        CLOUDY    33  33 100 SE12      29.92F FOG     WCI  24
$$

WIZ003>005-009-010-017-018-211600-
NORTH CENTRAL WISCONSIN

CITY           SKY/WX    TMP DP  RH WIND       PRES   REMARKS
MANITOWISH WTR CLOUDY    28  28 100 S9        29.95F FOG     WCI  19
ARBOR VITAE    CLOUDY    32  30  94 SE6       29.96F FOG     WCI  26
WOODRUFF       CLOUDY    32  30  94 SE6       29.96F FOG     WCI  26
RHINELANDER    CLOUDY    28  26  92 SE8       30.00F FOG     WCI  20
EAGLE RIVER    CLOUDY    27  27 100 SE8       29.99F FOG     WCI  19
LAND O LAKES   CLOUDY    28  28  96 S9        29.99F FOG     WCI  20
PHILLIPS       CLOUDY    29  27  92 SE12      29.95F FOG     WCI  20
TOMAHAWK       CLOUDY    28  27  94 CALM      30.00F FOG
MEDFORD        FOG       28  28  97 SE12      29.98S VSB 1   WCI  18
MERRILL        CLOUDY    29  28  97 SE9       30.01F FOG     WCI  21
$$

WIZ029-030-035-036-043>047-211600-
CENTRAL WISCONSIN

CITY           SKY/WX    TMP DP  RH WIND       PRES   REMARKS
WAUSAU         CLOUDY    29  28  96 SE9       30.03R FOG     WCI  20
MOSINEE        CLOUDY    28  28 100 SE8       30.04F FOG     WCI  20
MARSHFIELD     CLOUDY    31  28  89 S9        30.02S FOG     WCI  23
STEVENS POINT  CLOUDY    29  28  96 S7        30.06S FOG     WCI  21
WAUPACA        CLOUDY    33  31  91 SE7       30.09S FOG     WCI  27
WAUTOMA        CLOUDY    32  32 100 S8        30.09R FOG     WCI  25
WISC RAPIDS    CLOUDY    31  28  89 SE7       30.06S FOG     WCI  24
CAMP DOUGLAS   CLOUDY    32  32 100 SE10      30.04F FOG     WCI  24
$$

WIZ011>013-019>022-031-037>040-048>050-211600-
NORTHEAST WISCONSIN

CITY           SKY/WX    TMP DP  RH WIND       PRES   REMARKS
ANTIGO         FOG       27  27 100 SE9       30.04S VSB 1/2 WCI  17
SHAWANO        CLOUDY    32  29  88 S3        30.10F FOG
OCONTO         CLOUDY    31  29  93 SE5       30.12F WCI  26
STURGEON BAY   CLOUDY    34  28  80 S8        30.14F WCI  27
GREEN BAY      CLOUDY    32  28  85 S8        30.12F FOG     WCI  25
MANITOWOC      CLOUDY    34  32  92 S13       30.15S FOG     WCI  25
APPLETON       CLOUDY    30  30 100 SE12      30.10F FOG     WCI  21
CLINTONVILLE   CLOUDY    32  30  93 SE8       30.09F FOG     WCI  25
OSHKOSH        CLOUDY    32  29  88 S8        30.11F FOG     WCI  25
$$

WIZ032>034-041-042-053>061-211600-
SOUTHWEST WISCONSIN

CITY           SKY/WX    TMP DP  RH WIND       PRES   REMARKS
LA CROSSE      CLOUDY    36  33  89 S12       29.99F FOG     WCI  28
SPARTA         CLOUDY    33  32  96 SE10      30.02F FOG     WCI  25
VIROQUA        CLOUDY    32  32 100 SE10      30.00F VSB 1/4 WCI  24
BOSCOBEL       CLOUDY    37  33  85 MISG      30.06S FOG
PRAIRIE DU CHI CLOUDY    36  33  88 SE8       30.04S FOG     WCI  30
PLATTEVILLE    CLOUDY    34  33  97 S9        30.07S WCI  27
$$

WIZ056-057-062-063-064-067-068-211600-
SOUTH CENTRAL WISCONSIN

CITY           SKY/WX    TMP DP  RH WIND       PRES   REMARKS
REEDSBURG      CLOUDY    32  32  99 S5        30.06S FOG     WCI  27
BARABOO/DELLS  CLOUDY    32  32  99 S8        30.07S FOG     WCI  25
LONE ROCK      CLOUDY    38  32  79 SE9       30.08S HAZE    WCI  31
MINERAL POINT  CLOUDY    34  34 100 S10       30.06S FOG     WCI  26
MADISON        CLOUDY    33  30  88 S15       30.10S FOG     WCI  23
MIDDLETON      CLOUDY    34  33  96 S8        30.09F WCI  28
WATERTOWN      CLOUDY    32  32  99 S6        30.12S FOG     WCI  26
MONROE         CLOUDY    32  32 100 S9        30.10S FOG     WCI  24
JANESVILLE     CLOUDY    34  32  93 S8        30.13F FOG     WCI  27
$$

WIZ051-052-058>065-066-070>072-211600-
SOUTHEAST WISCONSIN

CITY           SKY/WX    TMP DP  RH WIND       PRES   REMARKS
MILWAUKEE      CLOUDY    33  27  78 S7        30.17S WCI  27
WAUKESHA       LGT SNOW  30  28  93 S7        30.15F WCI  23
MILWAUKEE/TIMM CLOUDY    32  27  80 S7        30.17S HAZE    WCI  26
RACINE         CLOUDY    34  28  79 S7        30.19S WCI  28
BURLINGTON     LGT SNOW  31  29  91 S6        30.16S WCI  25
KENOSHA        CLOUDY    33  28  81 S9        30.17F HAZE    WCI  25
FOND DU LAC    CLOUDY    33  29  85 S13       30.12S FOG     WCI  24
SHEBOYGAN      CLOUDY    33  29  85 S8        30.15S FOG     WCI  26
WEST BEND      CLOUDY    32  28  86 S6        30.14S FOG     WCI  26
JUNEAU         CLOUDY    32  30  94 SE10G16   30.12F FOG     WCI  23
$$

LSZ147-162-211600-
LAKE SUPERIOR

STATION/POSITION TIME  TEMP    WIND        PRES    WAVE
                       AIR SEA DIR/SP/G            HT/PER
                 (UTC) (F)     (DEG/KT/KT) (MB)    (FT/S)
DEVILS ISLAND    1500   32     130/  5/  8 1015.3F
PORT WING        1440   32     120/  2/  4 1013.9F
SAXON HARBOR     1400   33     160/  2/  5 1014.9
$$

LMZ867-665-643>646-211600-
LAKE MICHIGAN

STATION/POSITION TIME  TEMP    WIND        PRES    WAVE
                       AIR SEA DIR/SP/G            HT/PER
                 (UTC) (F)     (DEG/KT/KT) (MB)    (FT/S)
CHAMBERS ISLAND  1400   32     130/  4/  7 1020.7F
NORTHPORT PIER   1400   31     180/  1/  4 1021.0
SISTER BAY       1413          160/  8/ 12   N/A
ALGOMA LAKESHORE 1444          220/ 14/ 16   N/A
KEWAUNEE LAKESHO 1400   34     190/  9/ 12 1020.1F
SHEBOYGAN LAKESH 1500   36 34  180/ 18/ 19 1021.8F
PORT WASHINGTON  1400   34     190/  9/ 13 1022.0
MILWAUKEE LAKESH 1500   34     190/  8/ 10   N/A
KENOSHA   LAKESH 1500   34     180/  9/ 13 1022.0S
$$

TC  - TEMPERATURE IN CELSIUS
VSB - VISIBILITY IN STATUTE MILES
WCI - WIND CHILL INDEX
HX  - HEAT INDEX



USA.gov is the U.S. government's official web portal to all federal, state and local government web resources and services.